Terug naar catalogus

STARLINK-35684

ActiefCommunicatieVLEO
NORAD 66458·PAYLOAD·🇺🇸 United States

Gelanceerd Nov 15, 2025 vanaf Cape Canaveral Space Force Station

Loading…

Volgende Passages (komende 24 uur)

TLE

VersSource: CelesTrak SupGP

Epoch: Sep 14, 2026, 21:29 UTC

1 66458C 25262C   26257.89562500 -.00019485  00000+0 -70577-3 0  2577
2 66458  43.0019 307.8770 0001440 266.3349 331.9435 15.27587289    15

Volg STARLINK-35684 in realtime met AllMySat

Download on the App Store